Weather History for KSHL - April, 2013

Change the Weather History Date:

Monday, April 1, 2013

  Actual Average Record
Temperature  
Mean Temperature 27 °F -  
Max Temperature 35 °F 50 °F 91 °F (2012)
Min Temperature 19 °F 28 °F 10 °F (1975)
Degree Days  
Heating Degree Days 38    
Moisture  
Dew Point 16 °F    
Average Humidity 65    
Maximum Humidity 86    
Minimum Humidity 41    
Precipitation  
Precipitation 0.00 in - - ()
Sea Level Pressure  
Sea Level Pressure 30.25 in    
Wind  
Wind Speed 12 mph (NNW)    
Max Wind Speed 17 mph    
Max Gust Speed 23 mph    
Visibility 10 miles    
Events      
Averages and records for this station are not official NWS values.
T = Trace of Precipitation, MM = Missing Value Source: NWS Daily Summary

Daily Weather History Graph

Daily Weather History Graph

Search for Another Location

Airport or City:

Trip Planner

Search our weather history database for the weather conditions in past years. The results will help you decide how hot, cold, wet, or windy it might be!

Date:

Astronomy

Apr. 01, 2013 Rise Set
Actual Time 7:04 AM CDT 7:50 PM CDT
Civil Twilight 6:36 AM CDT 8:18 PM CDT
Nautical Twilight 6:01 AM CDT 8:53 PM CDT
Astronomical Twilight 5:26 AM CDT 9:28 PM CDT
Moon 1:06 AM CDT (4/1) 10:45 AM CDT (4/1)
Length of Visible Light 13h 42m
Length of Day
12h 45m
Waning Gibbous, 67% of the Moon is Illuminated
Apr 1
Waning Gibbous
Apr 2
Last Quarter
Apr 10
New
Apr 18
First Quarter
Apr 25
Full

Hourly Weather History & Observations

Time (CDT) Temp. Windchill Dew Point Humidity Pressure Visibility Wind Dir Wind Speed Gust Speed Precip Events Conditions
12:15 AM 24.8 °F 12.4 °F 17.6 °F 74% 30.16 in 10.0 mi North 15.0 mph - N/A   Clear
12:35 AM 24.8 °F 12.4 °F 17.6 °F 74% 30.16 in 10.0 mi North 15.0 mph - N/A   Clear
12:55 AM 23.0 °F 10.6 °F 17.6 °F 80% 30.16 in 10.0 mi North 13.8 mph - N/A   Clear
1:15 AM 23.0 °F 11.7 °F 17.6 °F 80% 30.17 in 10.0 mi North 11.5 mph - N/A   Clear
1:35 AM 23.0 °F 11.7 °F 17.6 °F 80% 30.18 in 10.0 mi North 11.5 mph - N/A   Clear
2:15 AM 21.2 °F 10.9 °F 17.6 °F 86% 30.19 in 10.0 mi NNW 9.2 mph - N/A   Scattered Clouds
2:35 AM 23.0 °F 11.7 °F 17.6 °F 80% 30.19 in 10.0 mi NNW 11.5 mph - N/A   Mostly Cloudy
2:55 AM 23.0 °F 10.1 °F 15.8 °F 74% 30.19 in 10.0 mi NNW 15.0 mph - N/A   Overcast
3:15 AM 23.0 °F 11.1 °F 15.8 °F 74% 30.19 in 10.0 mi NNW 12.7 mph - N/A   Scattered Clouds
3:35 AM 21.2 °F 9.5 °F 15.8 °F 80% 30.20 in 10.0 mi NNW 11.5 mph - N/A   Mostly Cloudy
3:55 AM 21.2 °F 8.9 °F 15.8 °F 80% 30.20 in 10.0 mi NNW 12.7 mph - N/A   Overcast
4:15 AM 21.2 °F 7.8 °F 15.8 °F 80% 30.20 in 10.0 mi NNW 15.0 mph - N/A   Overcast
4:35 AM 21.2 °F 8.3 °F 15.8 °F 80% 30.21 in 10.0 mi NNW 13.8 mph - N/A   Overcast
4:55 AM 21.2 °F 8.3 °F 15.8 °F 80% 30.21 in 10.0 mi NNW 13.8 mph - N/A   Overcast
5:15 AM 21.2 °F 8.9 °F 15.8 °F 80% 30.22 in 10.0 mi NNW 12.7 mph 19.6 mph N/A   Overcast
5:35 AM 21.2 °F 8.9 °F 15.8 °F 80% 30.22 in 10.0 mi NNW 12.7 mph - N/A   Mostly Cloudy
5:55 AM 19.4 °F 5.5 °F 14.0 °F 80% 30.23 in 10.0 mi NNW 15.0 mph - N/A   Partly Cloudy
6:15 AM 19.4 °F 6.6 °F 14.0 °F 80% 30.24 in 10.0 mi NNW 12.7 mph - N/A   Clear
6:35 AM 19.4 °F 6.6 °F 14.0 °F 80% 30.25 in 10.0 mi NNW 12.7 mph - N/A   Clear
7:15 AM 19.4 °F 6.6 °F 14.0 °F 80% 30.26 in 10.0 mi NNW 12.7 mph - N/A   Clear
7:35 AM 19.4 °F 6.6 °F 14.0 °F 80% 30.26 in 10.0 mi North 12.7 mph - N/A   Clear
8:15 AM 21.2 °F 8.3 °F 14.0 °F 74% 30.27 in 10.0 mi NNW 13.8 mph - N/A   Clear
8:35 AM 21.2 °F 6.8 °F 14.0 °F 74% 30.27 in 10.0 mi NNW 17.3 mph - N/A   Clear
8:55 AM 23.0 °F 9.2 °F 14.0 °F 68% 30.28 in 10.0 mi NNW 17.3 mph - N/A   Clear
9:15 AM 23.0 °F 10.6 °F 14.0 °F 68% 30.29 in 10.0 mi NNW 13.8 mph 19.6 mph N/A   Partly Cloudy
9:35 AM 24.8 °F 11.9 °F 14.0 °F 64% 30.29 in 10.0 mi North 16.1 mph - N/A   Partly Cloudy
9:55 AM 24.8 °F 11.9 °F 14.0 °F 64% 30.29 in 10.0 mi North 16.1 mph - N/A   Partly Cloudy
10:15 AM 26.6 °F 16.2 °F 14.0 °F 59% 30.30 in 10.0 mi NNW 11.5 mph - N/A   Partly Cloudy
10:35 AM 26.6 °F 15.2 °F 14.0 °F 59% 30.30 in 10.0 mi NNW 13.8 mph - N/A   Clear
10:55 AM 26.6 °F 16.2 °F 14.0 °F 59% 30.30 in 10.0 mi North 11.5 mph 19.6 mph N/A   Clear
11:15 AM 28.4 °F 16.2 °F 14.0 °F 55% 30.29 in 10.0 mi NNW 17.3 mph - N/A   Clear
11:35 AM 30.2 °F 18.9 °F 14.0 °F 51% 30.29 in 10.0 mi North 16.1 mph 23.0 mph N/A   Clear
12:15 PM 30.2 °F 20.2 °F 14.0 °F 51% 30.30 in 10.0 mi NNW 12.7 mph 20.7 mph N/A   Clear
12:35 PM 30.2 °F 20.8 °F 14.0 °F 51% 30.30 in 10.0 mi NW 11.5 mph 20.7 mph N/A   Clear
12:55 PM 32.0 °F 21.6 °F 15.8 °F 51% 30.29 in 10.0 mi North 15.0 mph 21.9 mph N/A   Clear
1:15 PM 32.0 °F 22.5 °F 15.8 °F 51% 30.29 in 10.0 mi NW 12.7 mph 21.9 mph N/A   Clear
1:35 PM 32.0 °F 22.5 °F 14.0 °F 48% 30.29 in 10.0 mi NNW 12.7 mph - N/A   Clear
2:15 PM 33.8 °F 25.3 °F 15.8 °F 48% 30.28 in 10.0 mi North 11.5 mph 18.4 mph N/A   Clear
2:35 PM 33.8 °F 24.3 °F 15.8 °F 48% 30.28 in 10.0 mi North 13.8 mph - N/A   Partly Cloudy
3:15 PM 35.6 °F 28.6 °F 15.8 °F 44% 30.27 in 10.0 mi NW 9.2 mph 17.3 mph N/A   Scattered Clouds
3:35 PM 35.6 °F 28.0 °F 14.0 °F 41% 30.27 in 10.0 mi NW 10.4 mph 19.6 mph N/A   Scattered Clouds
3:55 PM 35.6 °F 29.2 °F 14.0 °F 41% 30.26 in 10.0 mi NNW 8.1 mph 15.0 mph N/A   Partly Cloudy
4:15 PM 35.6 °F 28.6 °F 14.0 °F 41% 30.25 in 10.0 mi North 9.2 mph 16.1 mph N/A   Partly Cloudy
4:35 PM 35.6 °F 28.0 °F 15.8 °F 44% 30.25 in 10.0 mi WNW 10.4 mph 16.1 mph N/A   Partly Cloudy
4:55 PM 35.6 °F 27.1 °F 14.0 °F 41% 30.25 in 10.0 mi NNW 12.7 mph - N/A   Partly Cloudy
5:15 PM 35.6 °F 28.6 °F 15.8 °F 44% 30.25 in 10.0 mi NW 9.2 mph - N/A   Partly Cloudy
5:35 PM 35.6 °F 28.6 °F 14.0 °F 41% 30.24 in 10.0 mi NW 9.2 mph 16.1 mph N/A   Partly Cloudy
6:15 PM 35.6 °F 29.9 °F 14.0 °F 41% 30.24 in 10.0 mi NNW 6.9 mph - N/A   Clear
6:35 PM 35.6 °F 30.7 °F 14.0 °F 41% 30.24 in 10.0 mi NNW 5.8 mph 15.0 mph N/A   Clear
6:55 PM 35.6 °F 28.0 °F 14.0 °F 41% 30.23 in 10.0 mi NNW 10.4 mph - N/A   Clear
7:15 PM 33.8 °F 27.7 °F 14.0 °F 44% 30.23 in 10.0 mi NNW 6.9 mph - N/A   Clear
7:35 PM 33.8 °F 28.6 °F 15.8 °F 48% 30.23 in 10.0 mi NNW 5.8 mph - N/A   Clear
7:55 PM 32.0 °F 27.5 °F 17.6 °F 55% 30.24 in 10.0 mi NNW 4.6 mph - N/A   Clear
8:15 PM 30.2 °F 24.3 °F 19.4 °F 64% 30.24 in 10.0 mi NNW 5.8 mph - N/A   Clear
8:35 PM 28.4 °F 22.2 °F 19.4 °F 69% 30.24 in 10.0 mi North 5.8 mph - N/A   Clear
8:55 PM 28.4 °F 21.2 °F 19.4 °F 69% 30.25 in 10.0 mi North 6.9 mph - N/A   Clear
9:15 PM 26.6 °F 20.0 °F 19.4 °F 74% 30.25 in 10.0 mi North 5.8 mph - N/A   Clear
9:35 PM 26.6 °F 21.2 °F 21.2 °F 80% 30.26 in 10.0 mi NE 4.6 mph - N/A   Clear
9:55 PM 26.6 °F 21.2 °F 21.2 °F 80% 30.27 in 10.0 mi NE 4.6 mph - N/A   Clear
10:15 PM 26.6 °F 20.0 °F 21.2 °F 80% 30.27 in 10.0 mi NE 5.8 mph - N/A   Clear
10:35 PM 26.6 °F 19.1 °F 21.2 °F 80% 30.27 in 10.0 mi NE 6.9 mph - N/A   Clear
10:55 PM 24.8 °F 17.9 °F 21.2 °F 86% 30.27 in 10.0 mi NE 5.8 mph - N/A   Clear
11:15 PM 24.8 °F 19.1 °F 21.2 °F 86% 30.27 in 10.0 mi NE 4.6 mph - N/A   Clear
11:35 PM 24.8 °F - 21.2 °F 86% 30.27 in 10.0 mi Calm Calm - N/A   Clear
11:55 PM 24.8 °F - 21.2 °F 86% 30.27 in 10.0 mi Calm Calm - N/A   Clear